Regional Weather Roundup
Issued by NWS Kansas City/Pleasant Hill, MO

Home | Current Version | Previous Version | Text Only | Print | Product List | Glossary On
Versions: 1 2 3 4 5 6 7 8 9 10 11 12 13 14 15 16 17 18 19 20 21 22 23 24 25 26 27 28 29 30 31 32 33 34 35 36 37 38 39 40 41 42 43 44 45 46 47 48
000
ASUS43 KEAX 240810
RWREAX

WEATHER ROUNDUP FOR EASTERN KANSAS AND NORTHWEST MISSOURI
NATIONAL WEATHER SERVICE KANSAS CITY/PLEASANT HILL MO
300 AM CDT TUE MAY 24 2016

KSZ040-057-103>105-MOZ028-029-037-043-240900-
...KANSAS CITY METROPOLITAN AREA...

CITY           SKY/WX    TMP DP  RH WIND       PRES   REMARKS
K.C. INTL      PTCLDY    62  60  93 S10       29.88S
K.C. DOWNTOWN  CLEAR     65  60  84 S9        29.87F
LEES SUMMIT    PTCLDY    63  60  90 S12       29.89F
OLATHE - IXD   PTCLDY    62  61  96 S8        29.89S
OLATHE - OJC   MOCLDY    61  60  97 S8        29.88F
LAWRENCE       PTCLDY    61  60  97 E6        29.87F

$$

MOZ001>008-011>017-020>025-030>033-038>040-044>046-053-054-240900-
...NORTHERN AND CENTRAL MISSOURI...

CITY           SKY/WX    TMP DP  RH WIND       PRES   REMARKS
ST. JOSEPH     PTCLDY    64  61  90 S9        29.87F
MOSBY          SUNNY     63  61  94 CALM      29.90R
WARRENSBURG    PTCLDY    59  59 100 SE5       29.90F
WHITEMAN AFB   CLEAR     61  61 100 S6        29.91F
CLINTON        PTCLDY    59  59 100 CALM      29.92S FOG
SEDALIA        CLEAR     60  58  92 S6        29.93F
WARSAW         NOT AVBL
CHILLICOTHE      N/A     65  61  87 S6        29.90F
KIRKSVILLE     CLOUDY    64  59  83 S8        29.92F

$$

MOZ041-047>049-056>058-063>065-088>090-097-240900-
...EASTERN AND SOUTHERN MISSOURI...

CITY           SKY/WX    TMP DP  RH WIND       PRES   REMARKS
ST. LOUIS INTL CLOUDY    70  54  56 S6        29.97S
SPIRIT OF STL  CLOUDY    62  58  86 CALM      29.96S
COLUMBIA       MOCLDY    65  60  84 S7        29.94F
JEFFERSON CITY PTCLDY    64  59  83 E5        29.94S
ROLLA          CLOUDY    65  57  75 S5        29.95S
OSAGE BEACH      N/A    N/A N/A N/A CALM      29.94
SPRINGFIELD    CLOUDY    64  60  87 S8        29.92F
JOPLIN         MOCLDY    65  62  90 S6        29.89F
WEST PLAINS    CLOUDY    65  56  72 CALM      29.98F

$$

IAZ060-094-KSZ022-034>040-054-083-096-NEZ052-066-093-240900-
...KANSAS...SOUTHEAST NEBRASKA AND IOWA...

CITY           SKY/WX    TMP DP  RH WIND       PRES   REMARKS
TOPEKA         PTCLDY    63  60  90 E5        29.86F
MANHATTAN      CLOUDY    68  62  81 SE5       29.84F
EMPORIA        CLOUDY    64  62  93 SE6       29.86R
CHANUTE        CLOUDY    65  62  90 SE8       29.85F
WICHITA        CLOUDY    70  66  87 S9        29.79F
OMAHA          CLOUDY    62  58  86 S5        29.85R
LINCOLN        CLOUDY    60  58  92 SE5       29.83S
FALLS CITY     CLOUDY    67  61  81 SW9       29.86R
LAMONI         CLOUDY    65  60  84 S8        29.89R
DES MOINES     CLOUDY    66  62  87 W5        29.90R

$$




USA.gov is the U.S. government's official web portal to all federal, state and local government web resources and services.